Location: Colonia Mina de C?rbuni
(46.1667°N, 22.7167°E)
Time: 05:24:43
(UTC+00:00)

Cosmos 1726 Rocket - Pass Details

Date: 04 February 2023
Orbit: 602 x 627 km, 82.5° (Epoch: 21 March)

Event Time Altitude Azimuth Distance (km) Brightness Sun altitude
Rises 16:02:57 0° 1° (N) 2,866 6.8 -4.9°
Reaches altitude 10° 16:05:27 10° 13° (NNE) 1,957 5.8 -5.3°
Maximum altitude 16:09:09 27° 72° (ENE) 1,168 4.4 -5.9°
Drops below altitude 10° 16:12:50 10° 131° (SE) 1,947 5.8 -6.5°
Sets 16:15:19 0° 144° (SE) 2,848 6.8 -6.9°
